Flight Information

DEPARTURE
HAWTHORNE, CA
Elevation:
65
Runways:
7/25 - 4884x100 - ASPH-G
Active PE Departure:
25
Current PE ATIS:
R
Altimeter:
29.85
Remarks:
ATIS:
118.4 310-675-7945
Ground:
125.1
Tower:
121.1
DESTINATION
,
Elevation:
TPA:
1000 (est.)


6791.4 NM73° True-14° Var59° HDG

Flight Plan:
(click to file on line)

1. Type
2. Aircraft Identification
3. Aircraft Type / Special Equipment
4. True Airspeed
kts
5. Departure Airport
(ICAO code)
6. Arriving Airport
(ICAO code)
7. Cruising Altitude
ft
8. Alternate Airport
(ICAO code)
9. Route of Flight
10. Remarks


00:00:00 Departure ATIS: Destination ATIS:

Clearance Limit:
Route:
Altitude: Expect in minutes
Frequency:
Transponder: (7500 Hijack / 7600 Lost Comms / 7700 Emergency)


KHHR 110353Z 24005KT 10SM CLR 15/11 A2985 RMK AO2 SLP109 T01500106
Time: 2021-04-11T03:53:00Z
1618114149
Winds: 240 @ 5 kts
Visibility: 10.0 sm
Clouds (AGL): CLR
Temperature: 15.0 C
Dew Point: 10.6 C
Pressure: 29.84941 in Hgbr


Notes:

Data extracted from FAA Digital Chart Supplement. Effective: 0901Z Thursday, Feb 25, 2021 to 0901Z Thursday, APR 22, 2021
Current ATIS data is provided courtisy of PilotEdge.